Location: Newark
(39.0622°N, 106.5590°E)
Time: 01:08:42
(UTC+00:00)

Vanguard 2 Rocket - Pass Details

Date: 02 February 2020
Orbit: 553 x 3327 km, 32.9° (Epoch: 27 February)

Event Time Altitude Azimuth Distance (km) Brightness Sun altitude
Rises 18:37:54 0° 230° (SW) 3,490 - -60.3°
Reaches altitude 10° 18:41:18 10° 215° (SW) 2,228 - -59.8°
Maximum altitude 18:44:58 21° 165° (SSE) 1,372 - -59.2°
Drops below altitude 10° 18:48:04 10° 114° (ESE) 1,843 - -58.8°
Sets 18:50:34 0° 97° (E) 2,716 - -58.4°
